This demonstration page uses our WeatherBlox Daily Observations layout. Learn more.

Hourly Observations for January 14, 2018

Temp ( °F °C ) Dew Point ( °F °C ) Humidity (%) Winds ( mph kmh ) Pressure ( in mb ) Visibility ( mi km ) Precip ( " mm )
12:15 am 00:15 Clear 21 -6 9 -13 58 58 NNW 15 24 30.56 1035 10 16.09344 0 0
12:35 am 00:35 Clear 19 -7 7 -14 58 58 N 17 28 30.56 1035 10 16.09344 0 0
12:55 am 00:55 Clear 19 -7 9 -13 63 63 N 14 22 30.56 1035 10 16.09344 0 0
1:15 am 01:15 Clear 19 -7 9 -13 63 63 N 9 15 30.56 1035 10 16.09344 0 0
1:35 am 01:35 Clear 19 -7 9 -13 63 63 N 10 17 30.59 1036 10 16.09344 0 0
1:55 am 01:55 Clear 19 -7 9 -13 63 63 N 13 20 30.59 1036 10 16.09344 0 0
2:15 am 02:15 Clear 19 -7 9 -13 63 63 NNW 12 19 30.59 1036 10 16.09344 0 0
2:35 am 02:35 Clear 19 -7 9 -13 63 63 NNW 14 22 30.59 1036 10 16.09344 0 0
2:55 am 02:55 Clear 19 -7 9 -13 63 63 N 10 17 30.59 1036 10 16.09344 0 0
3:15 am 03:15 Clear 19 -7 9 -13 63 63 N 10 17 30.62 1037 10 16.09344 0 0
3:35 am 03:35 Clear 19 -7 9 -13 63 63 N 13 20 30.59 1036 10 16.09344 0 0
3:55 am 03:55 Clear 18 -8 7 -14 62 62 N 13 20 30.62 1037 10 16.09344 0 0
4:15 am 04:15 Clear 18 -8 7 -14 62 62 N 13 20 30.62 1037 10 16.09344 0 0
4:35 am 04:35 Clear 18 -8 7 -14 62 62 N 10 17 30.62 1037 10 16.09344 0 0
4:55 am 04:55 Clear 18 -8 7 -14 62 62 N 9 15 30.62 1037 10 16.09344 0 0
5:15 am 05:15 Clear 18 -8 7 -14 62 62 N 12 19 30.62 1037 10 16.09344 0 0
5:35 am 05:35 Clear 18 -8 7 -14 62 62 N 13 20 30.65 1038 10 16.09344 0 0
5:55 am 05:55 Clear 18 -8 7 -14 62 62 NNW 9 15 30.65 1038 10 16.09344 0 0
6:15 am 06:15 Clear 18 -8 7 -14 62 62 N 9 15 30.65 1038 10 16.09344 0 0
6:35 am 06:35 Clear 18 -8 7 -14 62 62 N 9 15 30.68 1039 10 16.09344 0 0
6:55 am 06:55 Clear 18 -8 7 -14 62 62 N 6 9 30.68 1039 10 16.09344 0 0
7:15 am 07:15 Clear 16 -9 7 -14 67 67 N 9 15 30.68 1039 10 16.09344 0 0
7:35 am 07:35 Sunny 16 -9 7 -14 67 67 N 13 20 30.68 1039 10 16.09344 0 0
7:55 am 07:55 Sunny 16 -9 7 -14 67 67 N 12 19 30.68 1039 10 16.09344 0 0
8:15 am 08:15 Sunny 18 -8 7 -14 62 62 N 10 17 30.68 1039 10 16.09344 0 0
8:35 am 08:35 Sunny 18 -8 7 -14 62 62 N 10 17 30.71 1040 10 16.09344 0 0
8:55 am 08:55 Sunny 19 -7 7 -14 58 58 N 13 20 30.71 1040 10 16.09344 0 0
9:15 am 09:15 Sunny 19 -7 5 -15 53 53 N 16 26 30.71 1040 10 16.09344 0 0
9:35 am 09:35 Sunny 19 -7 7 -14 58 58 NNW 14 22 30.74 1041 10 16.09344 0 0
9:55 am 09:55 Sunny 21 -6 5 -15 49 49 N 12 19 30.74 1041 10 16.09344 0 0
10:15 am 10:15 Sunny 21 -6 5 -15 49 49 N 13 20 30.74 1041 10 16.09344 0 0
10:35 am 10:35 Sunny 21 -6 5 -15 49 49 N 13 20 30.74 1041 10 16.09344 0 0
10:55 am 10:55 Sunny 21 -6 5 -15 49 49 N 15 24 30.71 1040 10 16.09344 0 0
11:15 am 11:15 Sunny 23 -5 5 -15 46 46 N 14 22 30.71 1040 10 16.09344 0 0
11:35 am 11:35 Sunny 23 -5 5 -15 46 46 N 13 20 30.71 1040 10 16.09344 0 0
11:55 am 11:55 Sunny 25 -4 5 -15 42 42 N 14 22 30.68 1039 10 16.09344 0 0
12:15 pm 12:15 Sunny 25 -4 5 -15 42 42 N 15 24 30.68 1039 10 16.09344 0 0
12:35 pm 12:35 Sunny 27 -3 5 -15 39 39 N 12 19 30.65 1038 10 16.09344 0 0
12:55 pm 12:55 Sunny 27 -3 5 -15 39 39 NNE 12 19 30.65 1038 10 16.09344 0 0
1:15 pm 13:15 Sunny 27 -3 5 -15 39 39 N 9 15 30.65 1038 10 16.09344 0 0
1:35 pm 13:35 Sunny 27 -3 5 -15 39 39 N 8 13 30.65 1038 10 16.09344 0 0
1:55 pm 13:55 Sunny 28 -2 5 -15 37 37 NNE 9 15 30.62 1037 10 16.09344 0 0
2:15 pm 14:15 Sunny 27 -3 3 -16 36 36 N 9 15 30.62 1037 10 16.09344 0 0
2:35 pm 14:35 Sunny 28 -2 3 -16 34 34 N 14 22 30.62 1037 10 16.09344 0 0
2:55 pm 14:55 Sunny 27 -3 3 -16 36 36 N 9 15 30.62 1037 10 16.09344 0 0
3:15 pm 15:15 Sunny 27 -3 5 -15 39 39 N 5 7 30.62 1037 10 16.09344 0 0
3:35 pm 15:35 Sunny 27 -3 3 -16 36 36 N 6 9 30.62 1037 10 16.09344 0 0
3:55 pm 15:55 Sunny 27 -3 3 -16 36 36 N 9 15 30.62 1037 10 16.09344 0 0
4:15 pm 16:15 Sunny 27 -3 3 -16 36 36 N 7 11 30.62 1037 10 16.09344 0 0
4:35 pm 16:35 Sunny 27 -3 5 -15 39 39 N 7 11 30.62 1037 10 16.09344 0 0
4:55 pm 16:55 Sunny 25 -4 5 -15 42 42 N 5 7 30.65 1038 10 16.09344 0 0
5:15 pm 17:15 Clear 25 -4 5 -15 42 42 N 6 9 30.65 1038 10 16.09344 0 0
5:35 pm 17:35 Clear 25 -4 5 -15 42 42 N 5 7 30.65 1038 10 16.09344 0 0
5:55 pm 17:55 Clear 23 -5 5 -15 46 46 N 5 7 30.65 1038 10 16.09344 0 0
6:15 pm 18:15 Clear 23 -5 5 -15 46 46 N 6 9 30.65 1038 10 16.09344 0 0
6:35 pm 18:35 Clear 23 -5 5 -15 46 46 NE 5 7 30.65 1038 10 16.09344 0 0
6:55 pm 18:55 Clear 23 -5 5 -15 46 46 Calm 30.68 1039 10 16.09344 0 0
7:15 pm 19:15 Clear 23 -5 5 -15 46 46 NE 3 6 30.68 1039 10 16.09344 0 0
7:35 pm 19:35 Clear 21 -6 7 -14 54 54 Calm 30.68 1039 10 16.09344 0 0
7:55 pm 19:55 Clear 21 -6 7 -14 54 54 NE 7 11 30.68 1039 10 16.09344 0 0
8:15 pm 20:15 Clear 21 -6 7 -14 54 54 NE 7 11 30.68 1039 10 16.09344 0 0
8:35 pm 20:35 Clear 21 -6 7 -14 54 54 NE 6 9 30.68 1039 10 16.09344 0 0
8:55 pm 20:55 Clear 21 -6 7 -14 54 54 NNE 6 9 30.68 1039 10 16.09344 0 0
9:15 pm 21:15 Clear 21 -6 7 -14 54 54 Calm 30.68 1039 10 16.09344 0 0
9:35 pm 21:35 Clear 21 -6 9 -13 58 58 NE 5 7 30.68 1039 10 16.09344 0 0
9:55 pm 21:55 Clear 19 -7 9 -13 63 63 NNE 6 9 30.68 1039 10 16.09344 0 0
10:15 pm 22:15 Clear 19 -7 9 -13 63 63 NNE 6 9 30.68 1039 10 16.09344 0 0
10:35 pm 22:35 Clear 19 -7 9 -13 63 63 NNE 7 11 30.68 1039 10 16.09344 0 0
10:55 pm 22:55 Clear 19 -7 9 -13 63 63 NNE 6 9 30.68 1039 10 16.09344 0 0
11:15 pm 23:15 Clear 19 -7 9 -13 63 63 NE 5 7 30.68 1039 10 16.09344 0 0
11:35 pm 23:35 Clear 19 -7 9 -13 63 63 NNE 3 6 30.68 1039 10 16.09344 0 0
11:55 pm 23:55 Clear 18 -8 9 -13 68 68 NNE 3 6 30.68 1039 10 16.09344 0 0

Powered by AerisWeather